{"data":{"norad_id":33376,"intl_designator":"2008-045A","name":"GALAXY 19 (G-19)","alt_names":[],"object_type":"PAYLOAD","status":"ACTIVE","operator":null,"country":"US","launch_date":"2008-09-24","launch_site_code":"SEAL","launch_vehicle":null,"mission":null,"orbit_class":"UNKNOWN","rcs_meters":15.8677,"size_class":null,"mass_kg":null,"dimensions":null,"purposes":["comms"],"wikipedia_slug":null,"has_3d_model":false,"image_url":null,"decayed_at":null,"tle_current":{"epoch":"2026-09-20T03:59:47.042016Z","epoch_age_seconds":43174,"freshness":"FRESH","line1":"1 33376U 08045A   26263.16651669 -.00000143  00000+0  00000+0 0  9995","line2":"2 33376   0.0251 235.0253 0002484 306.9365 140.0581  1.00271909 65854","mean_motion":1.00271909,"eccentricity":0.0002484,"inclination_deg":0.0251,"raan_deg":235.0253,"arg_perigee_deg":306.9365,"mean_anomaly_deg":140.0581,"bstar":0,"rev_number":6585,"period_min":1436.0951280981,"perigee_km":35776.086488741,"apogee_km":35797.03391031,"semimajor_km":42164.697199525,"source":"CELESTRAK","updated_at":"2026-09-20T09:00:35.517469Z"}}}